User: anonymous   Login
Location: Belvedere Heights
(33.9836°N, 117.3109°W)
Time: 22:33:37
(UTC+00:00)
Language:

COSMOS 1867 COOLANT - Orbit

View from above orbital plane
View from above orbital plane
View from above satellite
View from above satellite

Ground track
Ground track

The orbit data is extracted from the following two-line orbital elements,

1 39666U 87060AD  24108.36723216  .00001456  00000-0  56674-3 0  9993
2 39666  65.0104  68.6395 0020913 278.9684  80.9034 14.32953354523333
Epoch (UTC): 17 April 2024 08:48:48
Eccentricity: 0.0020913
inclination: 65.0104°
perigee height: 767 km
apogee height: 797 km
right ascension of ascending node: 68.6395°
argument of perigee: 278.9684°
revolutions per day: 14.32953354
mean anomaly at epoch: 80.9034°
orbit number at epoch: 52333

The dashed part of the orbit path shows where the satellite is in the earth's shadow,  

DLR